Location: Sevilla
(37.3933°N, 5.9839°W)
Time: 13:26:17
(UTC+02:00)

S-56A Canister/Altair - Pass Details

Date: 28 June 2024
Orbit: 638 x 2488 km, 38.9° (Epoch: 14 July)

Event Time Altitude Azimuth Distance (km) Brightness Sun altitude
Rises 00:36:28 0° 278° (W) 4,231 11.8 -24.0°
Reaches altitude 10° 00:38:56 10° 279° (W) 3,472 11.3 -24.2°
Maximum altitude 00:48:13 86° 8° (N) 1,851 9.3 -25.0°
Drops below altitude 10° 01:01:57 10° 100° (E) 4,935 11.3 -26.1°
Sets 01:06:09 0° 101° (E) 6,068 11.8 -26.4°
